Private Wetterstation Kalkriese

Lat.: 52° 24' 26" Nord • Long.: 8° 04' 41" Ost • Höhe: 57 m ü. NN
Donnerstag, 01. Dezember 2022 • 23:24:37 (UTC+1)

Tagesübersicht
Donnerstag, 1. Dezember 2022


Werte bei Min., Max., etc. sind Tagesdaten (Beginn 00:00 Uhr), Diagramme zeigen den Verlauf der letzten 24 Stunden.

Letzte / Nächste Aktualisierung: 23:15 / 2. Dezember - 00:15

Außentemperatur (2 m ü. Erdboden)

 

Bodentemperatur (5 cm ü. Erdboden)

Minimum: 2,7 °C • 23:00   Minimum: 2,2 °C • 23:00
Maximum: 4,9 °C • 00:00   Maximum: 5,6 °C • 11:30
Durchschnitt: 4,0 °C   Durchschnitt: 4,1 °C
 
mini_currentt   mini_currentt2

Taupunkt

 

Windchill

Minimum: 1,5 °C • 22:00   Minimum: 0,7 °C • 22:45
Maximum: 4,3 °C • 00:00   Maximum: 4,9 °C • 00:25
Durchschnitt: 3,2 °C   Durchschnitt: 3,0 °C
 
mini_currenttp   mini_currentwc

Außenluftfeuchtigkeit

 

Luftdruck

Minimum: 90 % • 18:10   Minimum: 1024,9 hPa • 02:00
Maximum: 96 % • 00:00   Maximum: 1026,6 hPa • 10:25
Durchschnitt: 94 %   Durchschnitt: 1025,8 hPa
 
mini_currentf   mini_currentd

Niederschlag

 

 

heutiger Tag: 0,0 l/m²   akt. Woche: 5,2 l/m²
letzten 24 Std.: 0,0 l/m²   akt. Monat: 0,0 l/m²
Regendauer Tag: 0 Minuten   akt. Jahr: 513,4 l/m²
 
mini_currentr   mini_currentxt

Windgeschwindigkeit

 

Windböen

Maximum: 10,5 km/h • 2 Bft • NO • 07:20   Maximum: 20,9 km/h • 4 Bft • O • 07:20
Durchschnitt: 5,5 km/h • 2 Bft   Durchschnitt: 10,9 km/h • 2 Bft
Dom. Windrichtung: NO   Dom. Windrichtung: NO
 
mini_currentw   mini_currentwb
 
mini_currentwr   mini_currentwdg

Windrichtung • Windstärke • Windböen

 

 

ddis_f_current   ddis_current
 
windbft_current    

Wolkenuntergrenze (berechnet)

 

Theta-E / Äquivalenttemperatur

mini_currentcl   mini_currentt7


Wetterdaten Tagesverlauf

Stundenwerte akt. Tag
 
Uhrzeit AT +2 m BT +5 cm ThetaE LF LD WG WR Solar UV-I
00:00 4,9 °C 5,0 °C 17,7 °C 96 % 1025,0 hPa 5,4 km/h NO 0 W/m² 0,0
01:00 4,9 °C 5,0 °C 17,7 °C 96 % 1025,0 hPa 5,8 km/h NO 0 W/m² 0,0
02:00 4,8 °C 5,0 °C 17,5 °C 96 % 1024,9 hPa 5,8 km/h NO 0 W/m² 0,0
03:00 4,7 °C 4,4 °C 17,3 °C 96 % 1025,3 hPa 4,1 km/h NO 0 W/m² 0,0
04:00 4,6 °C 4,4 °C 17,1 °C 96 % 1025,2 hPa 5,6 km/h N-NO 0 W/m² 0,0
05:00 4,5 °C 4,4 °C 17,1 °C 96 % 1025,2 hPa 7,7 km/h NO 0 W/m² 0,0
06:00 4,4 °C 4,4 °C 17,0 °C 96 % 1025,3 hPa 6,6 km/h NO 0 W/m² 0,0
07:00 4,4 °C 4,4 °C 16,8 °C 96 % 1025,6 hPa 8,3 km/h NO 0 W/m² 0,0
08:00 4,3 °C 4,4 °C 16,6 °C 96 % 1025,7 hPa 3,9 km/h NO 0 W/m² 0,0
09:00 4,2 °C 4,4 °C 16,4 °C 96 % 1026,1 hPa 4,8 km/h NO 11 W/m² 0,0
10:00 4,3 °C 4,4 °C 16,6 °C 96 % 1026,3 hPa 3,8 km/h O-SO 26 W/m² 0,0
11:00 4,3 °C 5,0 °C 16,6 °C 96 % 1026,5 hPa 4,7 km/h O-NO 29 W/m² 0,0
12:00 4,4 °C 5,0 °C 16,8 °C 95 % 1026,2 hPa 6,3 km/h O-NO 32 W/m² 0,0
13:00 4,3 °C 5,0 °C 16,5 °C 95 % 1026,1 hPa 3,1 km/h O-NO 29 W/m² 0,0
14:00 4,3 °C 5,6 °C 16,3 °C 94 % 1025,7 hPa 5,6 km/h O-NO 96 W/m² 0,0
15:00 4,2 °C 4,4 °C 16,1 °C 93 % 1025,6 hPa 7,6 km/h O-NO 41 W/m² 0,0
16:00 3,6 °C 3,3 °C 15,2 °C 92 % 1025,9 hPa 7,5 km/h O-NO 7 W/m² 0,0
17:00 3,6 °C 3,3 °C 14,7 °C 91 % 1025,8 hPa 4,5 km/h O-NO 0 W/m² 0,0
18:00 3,4 °C 3,3 °C 14,4 °C 91 % 1026,0 hPa 4,1 km/h O-NO 0 W/m² 0,0
19:00 3,4 °C 3,3 °C 14,1 °C 90 % 1026,2 hPa 4,3 km/h N-NO 0 W/m² 0,0
20:00 3,0 °C 2,8 °C 13,9 °C 91 % 1026,3 hPa 4,1 km/h NO 0 W/m² 0,0
21:00 2,9 °C 2,8 °C 13,5 °C 91 % 1026,1 hPa 4,5 km/h O-NO 0 W/m² 0,0
22:00 2,8 °C 2,8 °C 13,5 °C 91 % 1026,0 hPa 4,8 km/h NO 0 W/m² 0,0
23:00 2,7 °C 2,2 °C 13,5 °C 92 % 1025,8 hPa 6,6 km/h O-NO 0 W/m² 0,0


Wetterdaten Verlauf der letzten 24 Stunden

Stundenwerte ab Anfangszeit 23:00
 
Uhrzeit AT +2 m BT +5 cm ThetaE LF LD WG WR Solar UV-I
22:00 (vor 1 Std.) 2,8 °C 2,8 °C 13,4 °C 92 % 1025,9 hPa 3,9 km/h NO 0 W/m² 0,0
21:00 (vor 2 Std.) 2,9 °C 2,8 °C 13,5 °C 91 % 1025,9 hPa 5,3 km/h O-NO 0 W/m² 0,0
20:00 (vor 3 Std.) 3,1 °C 2,8 °C 13,9 °C 91 % 1026,2 hPa 6,1 km/h O-NO 0 W/m² 0,0
19:00 (vor 4 Std.) 3,3 °C 2,8 °C 14,3 °C 90 % 1026,2 hPa 5,2 km/h N 0 W/m² 0,0
18:00 (vor 5 Std.) 3,3 °C 3,3 °C 14,4 °C 90 % 1026,0 hPa 3,7 km/h O 0 W/m² 0,0
17:00 (vor 6 Std.) 3,6 °C 3,3 °C 14,9 °C 91 % 1025,9 hPa 6,6 km/h O-NO 0 W/m² 0,0
16:00 (vor 7 Std.) 3,5 °C 3,3 °C 14,9 °C 92 % 1025,7 hPa 5,4 km/h O 0 W/m² 0,0
15:00 (vor 8 Std.) 4,1 °C 4,4 °C 15,9 °C 93 % 1025,7 hPa 6,3 km/h NO 36 W/m² 0,0
14:00 (vor 9 Std.) 4,3 °C 5,6 °C 16,4 °C 94 % 1025,6 hPa 7,8 km/h NO 71 W/m² 0,0
13:00 (vor 10 Std.) 4,4 °C 5,0 °C 16,5 °C 95 % 1025,9 hPa 6,6 km/h O-NO 44 W/m² 0,0
12:00 (vor 11 Std.) 4,4 °C 5,0 °C 16,5 °C 96 % 1026,2 hPa 5,6 km/h O-NO 34 W/m² 0,0
11:00 (vor 12 Std.) 4,3 °C 5,0 °C 16,6 °C 96 % 1026,4 hPa 4,7 km/h O 33 W/m² 0,0
10:00 (vor 13 Std.) 4,2 °C 4,4 °C 16,6 °C 96 % 1026,5 hPa 3,7 km/h O-NO 25 W/m² 0,0
9:00 (vor 14 Std.) 4,2 °C 4,4 °C 16,4 °C 96 % 1026,1 hPa 2,6 km/h N 16 W/m² 0,0
8:00 (vor 15 Std.) 4,3 °C 4,4 °C 16,6 °C 96 % 1025,8 hPa 5,6 km/h NO 0 W/m² 0,0
7:00 (vor 16 Std.) 4,4 °C 4,4 °C 16,8 °C 96 % 1025,5 hPa 8,2 km/h NO 0 W/m² 0,0
6:00 (vor 17 Std.) 4,4 °C 4,4 °C 16,8 °C 96 % 1025,4 hPa 7,4 km/h N-NO 0 W/m² 0,0
5:00 (vor 18 Std.) 4,5 °C 4,4 °C 17,0 °C 96 % 1025,3 hPa 7,0 km/h NO 0 W/m² 0,0
4:00 (vor 19 Std.) 4,6 °C 4,4 °C 17,1 °C 96 % 1025,2 hPa 5,0 km/h O-NO 0 W/m² 0,0
3:00 (vor 20 Std.) 4,7 °C 4,4 °C 17,3 °C 96 % 1025,2 hPa 5,5 km/h N-NO 0 W/m² 0,0
2:00 (vor 21 Std.) 4,8 °C 5,0 °C 17,5 °C 96 % 1025,1 hPa 5,8 km/h N 0 W/m² 0,0
1:00 (vor 22 Std.) 4,9 °C 5,0 °C 17,7 °C 96 % 1025,0 hPa 5,0 km/h NO 0 W/m² 0,0
0:00 (vor 23 Std.) 4,9 °C 5,0 °C 17,7 °C 96 % 1025,1 hPa 5,3 km/h N-NO 0 W/m² 0,0
23:00 (vor 24 Std.) 4,9 °C 5,0 °C 17,7 °C 96 % 1025,0 hPa 6,3 km/h NO 0 W/m² 0,0